www.pogodaiklimat.ru

Погода и климат >> Архив погоды >> Индонезия >> Nangapinoh


ПОГОДА в Nangapinoh

  • Прогноз погоды в Nangapinoh
  • Монитор погоды в Nangapinoh
  • Климат города

АРХИВ ПОГОДЫ в Nangapinoh

Время (UTC), дата Ветер
(напр.,м/с)
 
Видим.   Явления Облачность Т
(С)
Тd
(С)
f
(%)
Тe
(С)
Тes
(С)
Комфортность P
(гПа)
Po
(гПа)
Тmin
(С)
Tmax
(С)
R
(мм)
S
(см)
00 14.02 штиль 0 3000 м слабый дождь 9/0
[Cb cap As op Ci fib]
+24.2 +23.5 96 +33 +35 очень
душно
1014.8 1010.0 +22.8
03 14.02 В 1 10 км {дождь} 9/0
[Cb cap As op Ci fib]
+27.3 +23.8 81 +37 +49 очень
душно
1014.5 1009.7
06 14.02 СВ 2 10 км осадки на расстоянии {дождь} 8/0
[Cb cap As op Ci fib]
+31.6 +22.9 60 +42 +53 опасность
перегрева
1012.0 1007.2
09 14.02 Ю 2 10 км осадки на расстоянии 9/0
[Cb cap As op Ci fib]
+30.2 +24.9 73 +43 +45 опасность
перегрева
1010.5 1005.7
12 14.02 С 2 5000 м гроза без осадков 10/0
[Cb cap]
+27.2 +25.0 88 +39 +39 очень
душно
1012.7 1007.9 +32.3
15 14.02 штиль 0 2000 м 10/10 300 м
[]
+25.7 +24.3 92 +36 +36 очень
душно
1009.4
00 15.02 штиль 0 1000 м слабый дождь 10/0
[Cb cap As op]
+24.8 +23.9 95 +34 +35 очень
душно
1013.3 1008.5 +24.3
03 15.02 Ю 2 8000 м {дождь} 10/0
[Cb cap As op]
+26.8 +24.4 87 +38 +42 очень
душно
1014.0 1009.2
06 15.02 Ю 1 7000 м слабый дождь 9/6 300 м
[Cb cap As op]
+28.0 +25.3 85 +41 +44 опасность
перегрева
1011.3 1006.5 2
09 15.02 З 3 10 км {дождь} 9/0
[Cb cap As op Ci fib]
+28.9 +24.2 76 +40 +42 очень
душно
1009.5 1004.7
12 15.02 штиль 0 7000 м {дождь} 10/0
[Cb cap As op]
+27.0 +25.3 90 +39 +39 очень
душно
1011.8 1007.0 +29.9
15 15.02 штиль 0 1000 м зарница 10/0
[Cb cap As op]
+26.0 +24.6 92 +37 +37 очень
душно
1013.5 1008.7
00 16.02 С 1 3000 м слабый дождь 10/0
[Cb cap As op]
+23.6 +23.1 97 +31 +32 очень
душно
1013.8 1009.0 +23.5
03 16.02 штиль 0 3000 м слабый дождь 10/0
[Cb calv As op]
+24.8 +23.6 93 +34 +38 очень
душно
1014.2 1009.4
06 16.02 штиль 0 7000 м {дождь} 10/0
[Cb cap As op]
+26.3 +23.6 85 +36 +41 очень
душно
1011.1 1006.3
09 16.02 штиль 0 7000 м осадки на расстоянии 10/6 300 м
[Cb cap As op]
+26.9 +24.1 85 +37 +38 очень
душно
1009.9 1005.1
12 16.02 штиль 0 6000 м 9/6 300 м
[Cb cap As op Ci fib]
+26.0 +24.5 91 +36 +36 очень
душно
1011.8 1007.0 +27.5
15 16.02 штиль 0 3000 м дымка 9/0
[Cb cap As op Ci fib]
+25.0 +24.1 95 +34 +34 очень
душно
1013.4 1008.6
00 17.02 штиль 0 1000 м дымка 10/0
[Cb cap As op]
+23.9 +23.6 98 +32 +33 очень
душно
1013.2 1008.4 +23.4
03 17.02 штиль 0 7000 м 9/0
[Cb calv As op]
+28.0 +24.2 80 +39 +46 очень
душно
1013.5 1008.7
06 17.02 З 1 10 км в посл. час дождь 9/0
[Cb cap As op Ci fib]
+29.4 +24.5 75 +42 +53 опасность
перегрева
1010.9 1006.2
09 17.02 З 1 10 км 9/0
[Cb cap Ac As Ci fib]
+30.1 +24.7 73 +43 +45 опасность
перегрева
1008.6 1003.8
12 17.02 штиль 0 5000 м зарница 9/0
[Cb cap As op Ci fib]
+27.8 +25.8 89 +41 +41 опасность
перегрева
1010.5 1005.7 +30.5
15 17.02 В 2 2000 м зарница 10/0
[Cb cap As op]
+25.5 +23.9 91 +35 +35 очень
душно
1013.0 1008.2
00 18.02 штиль 0 3000 м дымка 10/0
[Cb cap As op]
+23.2 +22.6 96 +32 +33 очень
душно
1014.3 1009.5 +23.0
03 18.02 ЮВ 1 7000 м 9/0
[Cb cap Ac As Ci fib]
+26.6 +23.8 85 +37 +48 очень
душно
1014.7 1009.9
06 18.02 СВ 2 10 км 8/0 2000 м
[Cu med, cong As op Ci fib]
+30.6 +24.3 69 +43 +55 опасность
перегрева
1011.3 1006.5
12 18.02 штиль 0 5000 м мгла 8/0
[Cb cap As op Ci fib]
+29.6 +26.8 85 +46 +46 опасность
перегрева
1010.7 1005.9 +33.3
15 18.02 штиль 0 3000 м мгла 8/0
[Cb cap As op Ci fib]
+27.5 +25.7 90 +41 +41 опасность
перегрева
1011.7 1006.9
00 19.02 штиль 0 1000 м гроза, ливневой дождь 10/6 300 м
[Cb cap As op]
+23.2 +22.9 98 +32 +33 очень
душно
1013.3 1008.5 +23.2 85
03 19.02 В 1 3000 м слабый дождь {гроза} 10/6 300 м
[Cb cap As op]
+24.6 +23.7 95 +33 +35 очень
душно
1013.2 1008.4 5
06 19.02 СЗ 2 10 км осадки на расстоянии {дождь} 9/0
[Cb cap As op]
+27.5 +23.8 80 +38 +43 очень
душно
1010.0 1005.2
09 19.02 СЗ 2 10 км 9/0
[Cb calv As op]
+27.8 +24.2 81 +39 +40 очень
душно
1008.1 1003.4
12 19.02 штиль 0 7000 м зарница 9/0
[Cb cap As op]
+26.9 +24.9 89 +39 +39 очень
душно
1009.9 1005.1 +30.0
15 19.02 СВ 1 1000 м гроза, ливневой дождь 10/0
[Cb cap As op]
+25.7 +24.8 95 +36 +36 очень
душно
1012.0 1007.2
00 20.02 С 1 8000 м 10/0
[Cb cap As op]
+24.1 +23.3 95 +32 +33 очень
душно
1011.6 1006.8 +23.4
03 20.02 ЮВ 2 10 км 9/0 2000 м
[Cu med, cong As op Ci fib]
+26.5 +23.6 84 +36 +47 очень
душно
1011.2 1006.4
06 20.02 штиль 0 10 км 9/6 300 м
[Cb cap As op]
+29.7 +23.7 70 +41 +45 опасность
перегрева
1008.5 1003.7
09 20.02 штиль 0 10 км 8/0 2000 м
[Sc Ac As Ci fib]
+32.0 +24.7 65 +45 +48 опасность
перегрева
1006.5 1001.7
12 20.02 СВ 2 7000 м гроза без осадков 9/0
[Cb cap As op Ci fib]
+28.4 +24.3 78 +40 +40 очень
душно
1008.9 1004.2 +32.7
15 20.02 Ю 2 5000 м зарница {гроза} 8/0
[Cb cap As op Ci fib]
+25.4 +23.8 91 +35 +35 очень
душно
1010.8 1006.0

 

Местоположение метеостанции Nangapinoh (Индонезия): широта -0.35 долгота 111.78 высота над уровнем моря 37 м.

В архиве по умолчанию представлена погода в Nangapinoh за последнюю неделю. Архивные данные за месяц целиком и за предыдущие месяцы, начиная с января 2011 года, Вы можете получить, выбрав интересующий диапазон дат из раскрывающегося списка и нажав кнопку "Ввод!".

Внимание! Время в таблицах - всемирное. Для получения местного времени необходимо прибавить поправку, которая в Nangapinoh равна 7 ч.

Смотрите также архив погоды в соседних городах и на ближайших метеорологических станциях:

Погода в Sintang (Индонезия) (59 км)
Погода в Putussibau (Индонезия) (185 км)
Погода в Palangkaraya (Индонезия) (257 км)
Погода в Kuching (Малайзия) (260 км)
Погода в Pangkalan Bun (Индонезия) (262 км)
Погода в Ketapang (Индонезия) (262 км)
Погода в Pontianak (Индонезия) (266 км)
Погода в Sibu (Малайзия) (298 км)
Погода в Muaratewe (Индонезия) (353 км)
Погода в Paloh (Индонезия) (363 км)

Пояснения к столбцам:

Ветер - указаны скорость ветра в м/с - средняя за 10 мин, порывы в срок и между сроками (в фигурных скобках) и направление, откуда дует ветер: С - северный, СВ - северо-восточный, В - восточный, ЮВ - юго-восточный, Ю - южный, ЮЗ - юго-западный, З - западный, СЗ - северо-западный.
Видимость - горизонтальная дальность видимости в метрах или километрах. При видимости от 1 до 10 км при отсутствии осадков обычно наблюдается дымка, при ухудшении видимости до 1 км и менее - туман. В сухую погоду видимость может ухудшаться дымом, пылью или мглою.
Явления - указаны атмосферные явления, наблюдавшиеся в срок или в последний час перед сроком; фигурными скобками обозначены явления, наблюдавшиеся между сроками (за 1-3 часа до срока); квадратными скобками обозначены град или гололедные отложения с указанием их диаметра в мм.
Облачность - указаны через наклонную черту общая и нижняя облачность в баллах и высота нижней границы облаков в метрах; квадратными скобками обозначены формы облаков: Ci - перистые, Cs - перисто-слоистые, Cc - перисто-кучевые, Ac - высококучевые, As - высокослоистые, Sc - слоисто-кучевые, Ns - слоисто-дождевые, Cu - кучевые, Cb - кучево-дождевые. Подробнее классификацию облаков см. в Атласе облаков (PDF).
T - Температура воздуха - температура, измеренная на высоте 2 м над землей.
Td - Температура точки росы - температура, при понижении до которой содержащийся в воздухе водяной пар достигнет насыщения.
f - Относительная влажность воздуха - влажноcть воздуха, измеренная на высоте 2 м над землей.
Te - Эффективная температура - температура, которую ощущает одетый по сезону человек в тени. Характеристика душности погоды. При расчете учитывается влияние влажности воздуха и скорости ветра на теплоощущения человека.
Tes - Эффективная температура на солнце - температура, которую ощущает человек, с поправкой на солнечный нагрев. Характеристика знойности погоды. Зависит от высоты солнца над горизонтом, облачности и скорости ветра. Ночью, в пасмурную погоду, а также при ветре 12 м/с и более поправка равна нулю.
P - Атмосферное давление - приведенное к уровню моря атмосферное давление.
Po - Атмосферное давление - измеренное на уровне метеостанции атмосферное давление.
Tmin - Минимальная температура - минимум температуры воздуха на высоте 2 м над землей.
Tmax - Максимальная температура - максимум температуры воздуха на высоте 2 м над землей.
R - Количество осадков - Количество выпавших осадков, мм. При наведении курсора мыши на число - период времени, за который выпало указанное количество осадков.
S - Снежный покров - Высота снежного покрова, см. При наведении курсора мыши на число - состояние снежного покрова и степень покрытия местности в баллах.